星链-5182 (STARLINK-5182 )

导读 | 豆包AI

STARLINK-5182是美国SpaceX公司星链星座的成员,于2022年10月28日发射,属于星链一期组网卫星,部署在近地轨道。作为全球覆盖的低轨宽带互联网星座组成部分,为全球地面基础设施匮乏区域提供高速互联网接入服务,填补了偏远地区网络覆盖空白,支撑星链全球通信服务能力搭建。

基本信息
目录编号:
54189
目录名称:
STARLINK-5182
国际标识:
2022-141AJ
轨道中心:
EARTH
卫星名称:
星链-5182
卫星全名:
星链-5182 (STARLINK-5182 )
卫星状态:
已陨落 最后检测时间 2024-06-24
发射日期:
2022-10-28 UTC
国别 :
美国 (US)
星等 :
--
轨道信息
数据来源 国际轨道数据
星历时间: 2024-06-24T18:11:10+0800
轨道信息已过期674天
半长轴: 6550.974km
偏心率: 0.0005047
轨道倾角: 53.193°
近地点辐角 311.051°
升交点赤经 212.894°
平近点角 139.744°
近地点: 169.532km
远地点: 176.146km
周期: 87.946分钟
每日圈数: 16.373595
详细信息
固有亮度:
5
最大亮度:
2.5
卫星平台:
Starlink v1.5
覆盖范围:
全球
运营商:
太空探索技术公司
运营商所在国:
美国
制造商(研发单位):
太空探索技术公司
制造商所在国:
美国
使用方式:
暂无
卫星简介
星链(Starlink)计划是由太空探索技术公司(SpaceX)提出的一个巨型低轨卫星互联网星座项目,计划在2019年至2024年间在太空搭建由约1.2万颗卫星组成的“星链”网络,其中1584颗将部署在地球上空550千米处的近地轨道,并从2020年开始工作。该卫星已陨落。